Biblioteca

Música » Venus Hum »

Sonic Boom

27 execuções | Ir para página da faixa

De Sábado 14 de maio de 2011 a Segunda 14 de maio de 2012 Todo o tempo

Faixas (27)
Faixa Álbum Duração Data
Sonic Boom 3:47 Abr 15 2012, 16h05
Sonic Boom 3:47 Mar 22 2012, 19h26
Sonic Boom 3:47 Dez 11 2011, 20h32
Sonic Boom 3:47 Dez 4 2011, 18h50
Sonic Boom 3:47 Nov 20 2011, 22h44
Sonic Boom 3:47 Out 30 2011, 15h02
Sonic Boom 3:47 Out 14 2011, 1h41
Sonic Boom 3:47 Set 29 2011, 2h55
Sonic Boom 3:47 Set 25 2011, 17h07
Sonic Boom 3:47 Set 8 2011, 23h28
Sonic Boom 3:47 Set 2 2011, 1h44
Sonic Boom 3:47 Ago 30 2011, 19h40
Sonic Boom 3:47 Ago 25 2011, 2h41
Sonic Boom 3:47 Ago 17 2011, 0h00
Sonic Boom 3:47 Ago 14 2011, 16h05
Sonic Boom 3:47 Jul 29 2011, 6h19
Sonic Boom 3:47 Jul 24 2011, 16h09
Sonic Boom 3:47 Jul 20 2011, 1h38
Sonic Boom 3:47 Jul 14 2011, 0h25
Sonic Boom 3:47 Jul 11 2011, 22h44
Sonic Boom 3:47 Jul 7 2011, 19h46
Sonic Boom 3:47 Jul 6 2011, 0h26
Sonic Boom 3:47 Jul 3 2011, 18h47
Sonic Boom 3:47 Jun 28 2011, 1h53
Sonic Boom 3:47 Jun 24 2011, 0h02
Sonic Boom 3:47 Jun 22 2011, 20h58
Sonic Boom 3:47 Mai 24 2011, 0h54